Terminal Aerodrome Forecast
Issued by NWS Oklahoma City, OK

Home | Current Version | Previous Version | Text Only | Print | Product List | Glossary On
Versions: 1 2 3 4 5 6 7 8 9 10 11 12 13 14 15 16 17 18 19 20 21 22 23
000
FTUS44 KOUN 282326
TAFOUN
TAF
KOUN 282326Z 2900/2924 14005KT P6SM SCT250
     FM292200 12008KT P6SM SCT035 BKN250=

USA.gov is the U.S. government's official web portal to all federal, state and local government web resources and services.